CW1084 Weather Reports


time (UTC)temp
C
wind
direction
speed
KPH
gust
KPH
rain 1hr
cm
rain 24hr
cm
rain mn
cm
humidity
%
barometer
mb
20260504160328 21 223 0.0 6.4 0.00 0.00 0.00 35 1012.6
20260504150808 19 225 0.0 4.8 0.00 0.00 0.00 40 1013.0
20260504150304 18 225 0.0 4.8 0.00 0.00 0.00 41 1013.0
20260504141128 16 227 3.2 17.7 0.00 0.00 0.00 46 1013.0
20260504140650 16 236 3.2 14.5 0.00 0.00 0.00 46 1013.0
20260504140620 16 194 3.2 14.5 0.00 0.00 0.00 46 1013.0
20260504130328 14 246 1.6 12.9 0.00 0.00 0.00 47 1013.6
20260504120221 13 265 1.6 8.0 0.00 0.00 0.00 50 1013.8
20260504110225 11 207 0.0 0.0 0.00 0.00 0.00 52 1014.2
20260504100403 11 180 0.0 0.0 0.00 0.00 0.00 51 1014.2
20260504100210 11 180 0.0 0.0 0.00 0.00 0.00 51 1014.3
20260504081508 12 188 0.0 9.7 0.00 0.00 0.00 51 1014.5
20260504080955 12 181 0.0 0.0 0.00 0.00 0.00 51 1014.4
20260504080606 12 181 0.0 3.2 0.00 0.00 0.00 51 1014.5
20260504070309 11 164 0.0 8.0 0.00 0.00 0.00 50 1014.8
20260504050711 10 229 0.0 1.6 0.00 0.00 0.00 58 1014.6
20260504050116 10 229 0.0 1.6 0.00 0.00 0.00 58 1014.7
20260504045645 10 229 0.0 0.0 0.00 0.00 0.00 59 1014.7
20260504045226 10 229 0.0 0.0 0.00 0.00 0.00 59 1014.8
20260504044755 10 229 0.0 0.0 0.00 0.00 0.00 60 1014.8
20260504043951 10 229 0.0 1.6 0.00 0.00 0.00 60 1014.8
20260504043532 10 229 0.0 1.6 0.00 0.00 0.00 60 1014.9
20260504042717 10 229 0.0 0.0 0.00 0.00 0.00 60 1014.8
20260504042203 10 229 0.0 3.2 0.00 0.00 0.00 61 1014.7
20260504041624 10 229 0.0 3.2 0.00 0.00 0.00 61 1014.7
20260504041458 10 229 0.0 1.6 0.00 0.00 0.00 61 1014.7
20260504040951 10 229 0.0 1.6 0.00 0.00 0.00 61 1014.7
20260504035921 10 229 0.0 0.0 0.00 0.00 0.00 61 1014.7
20260504035609 10 229 0.0 0.0 0.00 0.00 0.00 61 1014.7
20260504034813 10 229 0.0 0.0 0.00 0.00 0.00 61 1014.6
20260504034219 10 229 0.0 0.0 0.00 0.00 0.00 61 1014.6
20260504033930 10 229 0.0 0.0 0.00 0.00 0.00 61 1014.4
20260504033131 10 229 0.0 0.0 0.00 0.00 0.00 61 1014.3
20260504032710 10 229 0.0 0.0 0.00 0.00 0.00 60 1014.2
20260504032219 10 229 0.0 0.0 0.00 0.00 0.00 60 1014.3
20260504031445 10 229 0.0 0.0 0.00 0.00 0.00 60 1014.4
20260504030917 10 229 0.0 0.0 0.00 0.00 0.00 60 1014.3
20260504030301 10 229 0.0 0.0 0.00 0.00 0.00 59 1014.3
20260504025707 10 229 0.0 0.0 0.00 0.00 0.00 59 1014.3
20260504025131 10 229 0.0 0.0 0.00 0.00 0.00 60 1014.2
20260504025007 10 229 0.0 0.0 0.00 0.00 0.00 59 1014.2
20260504024020 10 229 0.0 0.0 0.00 0.00 0.00 59 1014.2
20260504023556 10 229 0.0 0.0 0.00 0.00 0.00 59 1014.2
20260504022909 10 229 0.0 0.0 0.00 0.00 0.00 59 1014.2
20260504022849 10 229 0.0 0.0 0.00 0.00 0.00 59 1014.3
20260504022600 10 229 0.0 0.0 0.00 0.00 0.00 59 1014.2
20260504021820 10 229 0.0 0.0 0.00 0.00 0.00 59 1014.2
20260504021220 10 229 0.0 0.0 0.00 0.00 0.00 58 1014.2
20260504020627 10 229 0.0 0.0 0.00 0.00 0.00 58 1014.1
20260504015553 10 229 0.0 0.0 0.00 0.00 0.00 57 1014.1
20260504015013 10 229 0.0 0.0 0.00 0.00 0.00 58 1014.1
20260504014340 10 229 0.0 0.0 0.00 0.00 0.00 57 1014.1
20260504013853 10 229 0.0 0.0 0.00 0.00 0.00 57 1014.1
20260504013303 11 229 0.0 0.0 0.00 0.00 0.00 57 1014.0
20260504012748 11 229 0.0 0.0 0.00 0.00 0.00 57 1014.0
20260504012139 11 229 0.0 0.0 0.00 0.00 0.00 56 1013.8
20260504011525 11 229 0.0 0.0 0.00 0.00 0.00 55 1013.8
20260504010938 11 229 0.0 0.0 0.00 0.00 0.00 55 1013.8
20260504010331 11 229 0.0 0.0 0.00 0.00 0.00 53 1013.8
20260504010319 11 229 0.0 0.0 0.00 0.00 0.00 54 1013.7
20260504005625 12 229 0.0 0.0 0.00 0.00 0.00 52 1013.8
20260504004803 12 229 0.0 0.0 0.00 0.00 0.00 52 1013.7
20260504004016 12 229 0.0 0.0 0.00 0.00 0.00 51 1013.6
20260504003451 12 229 0.0 0.0 0.00 0.00 0.00 50 1013.6
20260504002852 12 229 0.0 0.0 0.00 0.00 0.00 50 1013.5
20260504002312 13 229 0.0 0.0 0.00 0.00 0.00 49 1013.5
20260504001724 13 229 0.0 0.0 0.00 0.00 0.00 48 1013.5
20260504001117 13 229 0.0 0.0 0.00 0.00 0.00 47 1013.4
20260504000535 13 229 0.0 0.0 0.00 0.00 0.00 46 1013.4
20260504000049 14 229 0.0 0.0 0.00 0.00 0.00 46 1013.3
20260503235643 14 229 0.0 0.0 0.00 0.00 0.00 44 1013.2
20260503234848 14 229 0.0 0.0 0.00 0.00 0.00 42 1013.1
20260503234330 15 229 0.0 0.0 0.00 0.00 0.00 42 1013.1
20260503233751 15 229 0.0 0.0 0.00 0.00 0.00 41 1013.0
20260503233529 15 229 0.0 0.0 0.00 0.00 0.00 40 1013.0
20260503232600 15 229 0.0 0.0 0.00 0.00 0.00 39 1013.0
20260503231956 15 229 0.0 3.2 0.00 0.00 0.00 38 1013.0
20260503231430 15 229 0.0 0.0 0.00 0.00 0.00 40 1012.9
20260503231011 15 229 0.0 3.2 0.00 0.00 0.00 37 1013.0
20260503230353 15 229 0.0 3.2 0.00 0.00 0.00 36 1012.9
20260503225712 15 229 0.0 3.2 0.00 0.00 0.00 37 1013.0
20260503225114 16 229 0.0 3.2 0.00 0.00 0.00 37 1013.0
20260503224542 16 229 0.0 3.2 0.00 0.00 0.00 36 1013.0
20260503224433 16 229 0.0 8.0 0.00 0.00 0.00 35 1013.0
20260503223443 16 230 0.0 8.0 0.00 0.00 0.00 34 1013.0
20260503222959 16 229 1.6 9.7 0.00 0.00 0.00 35 1012.9
20260503222317 16 229 1.6 9.7 0.00 0.00 0.00 33 1013.0
20260503222136 16 231 3.2 19.3 0.00 0.00 0.00 33 1013.1
20260503221917 16 231 3.2 19.3 0.00 0.00 0.00 33 1013.1
20260503221210 16 247 3.2 19.3 0.00 0.00 0.00 32 1013.0
20260503220602 16 245 1.6 14.5 0.00 0.00 0.00 32 1013.1
20260503220245 16 275 1.6 9.7 0.00 0.00 0.00 33 1013.1
20260503220017 16 275 1.6 9.7 0.00 0.00 0.00 33 1013.1
20260503215503 16 257 1.6 9.7 0.00 0.00 0.00 33 1013.0
20260503215059 17 244 1.6 8.0 0.00 0.00 0.00 32 1012.9
20260503214258 17 221 1.6 8.0 0.00 0.00 0.00 31 1013.0
20260503213738 17 184 1.6 12.9 0.00 0.00 0.00 31 1013.0
20260503213655 17 173 1.6 8.0 0.00 0.00 0.00 31 1012.9
20260503212555 17 259 0.0 12.9 0.00 0.00 0.00 30 1013.1
20260503212027 17 234 1.6 12.9 0.00 0.00 0.00 31 1012.9
20260503211451 17 234 1.6 12.9 0.00 0.00 0.00 31 1012.8
20260503210918 17 263 1.6 16.1 0.00 0.00 0.00 31 1012.9
20260503210339 17 244 1.6 14.5 0.00 0.00 0.00 30 1012.8
20260503205751 17 200 1.6 19.3 0.00 0.00 0.00 31 1012.8
20260503205208 17 220 1.6 9.7 0.00 0.00 0.00 30 1013.0
20260503204558 17 245 3.2 16.1 0.00 0.00 0.00 32 1013.0
20260503204118 17 252 1.6 17.7 0.00 0.00 0.00 31 1012.9
20260503203427 17 218 1.6 17.7 0.00 0.00 0.00 32 1013.0
20260503202838 17 228 3.2 19.3 0.00 0.00 0.00 32 1013.1
20260503202308 17 231 3.2 19.3 0.00 0.00 0.00 31 1013.2
20260503201725 17 244 1.6 14.5 0.00 0.00 0.00 32 1013.3
20260503201256 17 269 1.6 14.5 0.00 0.00 0.00 33 1013.3
20260503200859 17 214 4.8 32.2 0.00 0.00 0.00 31 1013.4
20260503200853 17 250 3.2 32.2 0.00 0.00 0.00 31 1013.6
20260503195401 17 50 1.6 17.7 0.00 0.00 0.00 32 1013.6
20260503194909 17 48 1.6 17.7 0.00 0.00 0.00 32 1013.7
20260503194227 17 0 1.6 14.5 0.00 0.00 0.00 31 1013.7
20260503193715 17 223 1.6 19.3 0.00 0.00 0.00 32 1013.7
20260503193126 17 235 1.6 19.3 0.00 0.00 0.00 32 1013.8
20260503192713 17 226 1.6 19.3 0.00 0.00 0.00 33 1014.0
20260503192114 17 9 1.6 19.3 0.00 0.00 0.00 33 1014.0
20260503191623 16 212 1.6 22.5 0.00 0.00 0.00 32 1014.0
20260503190846 16 259 1.6 22.5 0.00 0.00 0.00 32 1014.1
20260503190311 16 283 3.2 8.0 0.00 0.00 0.00 33 1014.0
20260503185655 16 258 1.6 17.7 0.00 0.00 0.00 32 1014.0
20260503185105 16 198 1.6 11.3 0.00 0.00 0.00 33 1014.2
20260503184554 16 244 1.6 19.3 0.00 0.00 0.00 32 1014.2
20260503183927 16 240 1.6 19.3 0.00 0.00 0.00 32 1014.1
20260503183505 16 67 3.2 14.5 0.00 0.00 0.00 32 1014.2
20260503182947 16 224 3.2 25.7 0.00 0.00 0.00 31 1014.2
20260503182248 16 319 3.2 25.7 0.00 0.00 0.00 32 1014.3
20260503181904 16 200 1.6 17.7 0.00 0.00 0.00 34 1014.2
20260503181158 15 208 3.2 16.1 0.00 0.00 0.00 34 1014.4
20260503180626 15 303 4.8 17.7 0.00 0.00 0.00 34 1014.4
20260503180024 15 241 3.2 17.7 0.00 0.00 0.00 32 1014.5
20260503175505 15 63 3.2 20.9 0.00 0.00 0.00 34 1014.4
20260503175051 15 251 3.2 20.9 0.00 0.00 0.00 35 1014.2
20260503174320 15 229 3.2 16.1 0.00 0.00 0.00 34 1014.3
20260503173733 15 248 3.2 16.1 0.00 0.00 0.00 34 1014.4
20260503173259 15 327 3.2 20.9 0.00 0.00 0.00 34 1014.6
20260503172600 15 252 3.2 20.9 0.00 0.00 0.00 35 1014.6
20260503172148 15 207 1.6 14.5 0.00 0.00 0.00 35 1014.7
20260503171417 14 61 3.2 17.7 0.00 0.00 0.00 36 1014.8
20260503171228 14 229 1.6 12.9 0.00 0.00 0.00 36 1014.8
20260503171035 13 213 1.6 12.9 0.00 0.00 0.00 35 1014.8
20260503171024 13 199 1.6 4.8 0.00 0.00 0.00 35 1014.9
20260503171006 13 237 3.2 16.1 0.00 0.00 0.00 37 1014.9
20260503170927 14 260 4.8 17.7 0.00 0.00 0.00 35 1014.8
20260503170715 14 54 1.6 17.7 0.00 0.00 0.00 36 1014.9